Year,Month,Day,Hour,Minute,Value (Times are PST for temperature in C)
2016,05,06,00,00,10.70
2016,05,06,00,01,10.70
2016,05,06,00,02,10.70
2016,05,06,00,03,10.70
2016,05,06,00,04,10.60
2016,05,06,00,05,10.60
2016,05,06,00,06,10.60
2016,05,06,00,07,10.60
2016,05,06,00,08,10.60
2016,05,06,00,09,10.60
2016,05,06,00,10,10.50
2016,05,06,00,11,10.40
2016,05,06,00,12,10.40
2016,05,06,00,13,10.40
2016,05,06,00,14,10.40
2016,05,06,00,15,10.40
2016,05,06,00,16,10.40
2016,05,06,00,17,10.40
2016,05,06,00,18,10.40
2016,05,06,00,19,10.40
2016,05,06,00,20,10.30
2016,05,06,00,21,10.30
2016,05,06,00,22,10.30
2016,05,06,00,23,10.20
2016,05,06,00,24,10.20
2016,05,06,00,25,10.20
2016,05,06,00,26,10.20
2016,05,06,00,27,10.20
2016,05,06,00,28,10.20
2016,05,06,00,29,10.10
2016,05,06,00,30,10.10
2016,05,06,00,31,10.10
2016,05,06,00,32,10.10
2016,05,06,00,33,10.10
2016,05,06,00,34,10.10
2016,05,06,00,35,10.10
2016,05,06,00,36,10.00
2016,05,06,00,37,9.90
2016,05,06,00,38,9.90
2016,05,06,00,39,9.90
2016,05,06,00,40,9.90
2016,05,06,00,41,9.90
2016,05,06,00,42,9.90
2016,05,06,00,43,9.90
2016,05,06,00,44,9.90
2016,05,06,00,45,9.90
2016,05,06,00,46,9.90
2016,05,06,00,47,9.90
2016,05,06,00,48,9.90
2016,05,06,00,49,9.90
2016,05,06,00,50,9.90
2016,05,06,00,51,9.80
2016,05,06,00,52,9.80
2016,05,06,00,53,9.80
2016,05,06,00,54,9.80
2016,05,06,00,55,9.80
2016,05,06,00,56,9.80
2016,05,06,00,57,9.80
2016,05,06,00,58,9.80
2016,05,06,00,59,9.70
2016,05,06,01,00,9.70
2016,05,06,01,01,9.70
2016,05,06,01,02,9.70
2016,05,06,01,03,9.70
2016,05,06,01,04,9.70
2016,05,06,01,05,9.70
2016,05,06,01,06,9.70
2016,05,06,01,07,9.70
2016,05,06,01,08,9.70
2016,05,06,01,09,9.70
2016,05,06,01,10,9.70
2016,05,06,01,11,9.60
2016,05,06,01,12,9.60
2016,05,06,01,13,9.60
2016,05,06,01,14,9.60
2016,05,06,01,15,9.50
2016,05,06,01,16,9.50
2016,05,06,01,17,9.50
2016,05,06,01,18,9.50
2016,05,06,01,19,9.50
2016,05,06,01,20,9.40
2016,05,06,01,21,9.40
2016,05,06,01,22,9.40
2016,05,06,01,23,9.40
2016,05,06,01,24,9.40
2016,05,06,01,25,9.40
2016,05,06,01,26,9.30
2016,05,06,01,27,9.30
2016,05,06,01,28,9.30
2016,05,06,01,29,9.30
2016,05,06,01,30,9.30
2016,05,06,01,31,9.30
2016,05,06,01,32,9.30
2016,05,06,01,33,9.30
2016,05,06,01,34,9.30
2016,05,06,01,35,9.30
2016,05,06,01,36,9.30
2016,05,06,01,37,9.30
2016,05,06,01,38,9.40
2016,05,06,01,39,9.40
2016,05,06,01,40,9.40
2016,05,06,01,41,9.40
2016,05,06,01,42,9.40
2016,05,06,01,43,9.40
2016,05,06,01,44,9.40
2016,05,06,01,45,9.40
2016,05,06,01,46,9.40
2016,05,06,01,47,9.40
2016,05,06,01,48,9.40
2016,05,06,01,49,9.30
2016,05,06,01,50,9.30
2016,05,06,01,51,9.30
2016,05,06,01,52,9.30
2016,05,06,01,53,9.30
2016,05,06,01,54,9.20
2016,05,06,01,55,9.20
2016,05,06,01,56,9.20
2016,05,06,01,57,9.20
2016,05,06,01,58,9.20
2016,05,06,01,59,9.20
2016,05,06,02,00,9.20
2016,05,06,02,01,9.10
2016,05,06,02,02,9.10
2016,05,06,02,03,9.10
2016,05,06,02,04,9.10
2016,05,06,02,05,9.10
2016,05,06,02,06,9.10
2016,05,06,02,07,9.10
2016,05,06,02,08,9.00
2016,05,06,02,09,9.00
2016,05,06,02,10,9.00
2016,05,06,02,11,9.00
2016,05,06,02,12,8.90
2016,05,06,02,13,8.90
2016,05,06,02,14,8.90
2016,05,06,02,15,8.90
2016,05,06,02,16,8.90
2016,05,06,02,17,8.80
2016,05,06,02,18,8.80
2016,05,06,02,19,8.80
2016,05,06,02,20,8.80
2016,05,06,02,21,8.80
2016,05,06,02,22,8.70
2016,05,06,02,23,8.70
2016,05,06,02,24,8.70
2016,05,06,02,25,8.70
2016,05,06,02,26,8.70
2016,05,06,02,27,8.70
2016,05,06,02,28,8.70
2016,05,06,02,29,8.70
2016,05,06,02,30,8.70
2016,05,06,02,31,8.60
2016,05,06,02,32,8.60
2016,05,06,02,33,8.60
2016,05,06,02,34,8.60
2016,05,06,02,35,8.60
2016,05,06,02,36,8.60
2016,05,06,02,37,8.60
2016,05,06,02,38,8.60
2016,05,06,02,39,8.60
2016,05,06,02,40,8.60
2016,05,06,02,41,8.50
2016,05,06,02,42,8.50
2016,05,06,02,43,8.50
2016,05,06,02,44,8.50
2016,05,06,02,45,8.40
2016,05,06,02,46,8.40
2016,05,06,02,47,8.40
2016,05,06,02,48,8.40
2016,05,06,02,49,8.40
2016,05,06,02,50,8.40
2016,05,06,02,51,8.30
2016,05,06,02,52,8.30
2016,05,06,02,53,8.30
2016,05,06,02,54,8.30
2016,05,06,02,55,8.30
2016,05,06,02,56,8.30
2016,05,06,02,57,8.30
2016,05,06,02,58,8.20
2016,05,06,02,59,8.20
2016,05,06,03,00,8.20
2016,05,06,03,01,8.20
2016,05,06,03,02,8.20
2016,05,06,03,03,8.20
2016,05,06,03,04,8.30
2016,05,06,03,05,8.30
2016,05,06,03,06,8.30
2016,05,06,03,07,8.30
2016,05,06,03,08,8.40
2016,05,06,03,09,8.40
2016,05,06,03,10,8.40
2016,05,06,03,11,8.30
2016,05,06,03,12,8.30
2016,05,06,03,13,8.30
2016,05,06,03,14,8.20
2016,05,06,03,15,8.20
2016,05,06,03,16,8.20
2016,05,06,03,17,8.20
2016,05,06,03,18,8.20
2016,05,06,03,19,8.20
2016,05,06,03,20,8.20
2016,05,06,03,21,8.10
2016,05,06,03,22,8.10
2016,05,06,03,23,8.10
2016,05,06,03,24,8.10
2016,05,06,03,25,8.00
2016,05,06,03,26,8.00
2016,05,06,03,27,8.00
2016,05,06,03,28,8.00
2016,05,06,03,29,7.90
2016,05,06,03,30,7.90
2016,05,06,03,31,7.90
2016,05,06,03,32,7.80
2016,05,06,03,33,7.80
2016,05,06,03,34,7.80
2016,05,06,03,35,7.80
2016,05,06,03,36,7.80
2016,05,06,03,37,7.80
2016,05,06,03,38,7.80
2016,05,06,03,39,7.80
2016,05,06,03,40,7.80
2016,05,06,03,41,7.80
2016,05,06,03,42,7.80
2016,05,06,03,43,7.80
2016,05,06,03,44,7.80
2016,05,06,03,45,7.80
2016,05,06,03,46,7.80
2016,05,06,03,47,7.80
2016,05,06,03,48,7.80
2016,05,06,03,49,7.80
2016,05,06,03,50,7.80
2016,05,06,03,51,7.80
2016,05,06,03,52,7.80
2016,05,06,03,53,7.80
2016,05,06,03,54,7.80
2016,05,06,03,55,7.80
2016,05,06,03,56,7.70
2016,05,06,03,57,7.70
2016,05,06,03,58,7.70
2016,05,06,03,59,7.70
2016,05,06,04,00,7.70
2016,05,06,04,01,7.60
2016,05,06,04,02,7.60
2016,05,06,04,03,7.60
2016,05,06,04,04,7.60
2016,05,06,04,05,7.60
2016,05,06,04,06,7.60
2016,05,06,04,07,7.60
2016,05,06,04,08,7.60
2016,05,06,04,09,7.60
2016,05,06,04,10,7.70
2016,05,06,04,11,7.70
2016,05,06,04,12,7.60
2016,05,06,04,13,7.60
2016,05,06,04,14,7.60
2016,05,06,04,15,7.60
2016,05,06,04,16,7.60
2016,05,06,04,17,7.60
2016,05,06,04,18,7.50
2016,05,06,04,19,7.50
2016,05,06,04,20,7.50
2016,05,06,04,21,7.50
2016,05,06,04,22,7.50
2016,05,06,04,23,7.50
2016,05,06,04,24,7.50
2016,05,06,04,25,7.50
2016,05,06,04,26,7.50
2016,05,06,04,27,7.50
2016,05,06,04,28,7.50
2016,05,06,04,29,7.50
2016,05,06,04,30,7.50
2016,05,06,04,31,7.50
2016,05,06,04,32,7.50
2016,05,06,04,33,7.50
2016,05,06,04,34,7.50
2016,05,06,04,35,7.50
2016,05,06,04,36,7.50
2016,05,06,04,37,7.50
2016,05,06,04,38,7.50
2016,05,06,04,39,7.50
2016,05,06,04,40,7.50
2016,05,06,04,41,7.50
2016,05,06,04,42,7.50
2016,05,06,04,43,7.50
2016,05,06,04,44,7.40
2016,05,06,04,45,7.40
2016,05,06,04,46,7.40
2016,05,06,04,47,7.40
2016,05,06,04,48,7.40
2016,05,06,04,49,7.40
2016,05,06,04,50,7.30
2016,05,06,04,51,7.30
2016,05,06,04,52,7.30
2016,05,06,04,53,7.30
2016,05,06,04,54,7.30
2016,05,06,04,55,7.30
2016,05,06,04,56,7.30
2016,05,06,04,57,7.30
2016,05,06,04,58,7.30
2016,05,06,04,59,7.30
2016,05,06,05,00,7.30
2016,05,06,05,01,7.30
2016,05,06,05,02,7.30
2016,05,06,05,03,7.30
2016,05,06,05,04,7.30
2016,05,06,05,05,7.30
2016,05,06,05,06,7.30
2016,05,06,05,07,7.30
2016,05,06,05,08,7.30
2016,05,06,05,09,7.20
2016,05,06,05,10,7.20
2016,05,06,05,11,7.20
2016,05,06,05,12,7.20
2016,05,06,05,13,7.20
2016,05,06,05,14,7.20
2016,05,06,05,15,7.20
2016,05,06,05,16,7.20
2016,05,06,05,17,7.20
2016,05,06,05,18,7.20
2016,05,06,05,19,7.20
2016,05,06,05,20,7.20
2016,05,06,05,21,7.20
2016,05,06,05,22,7.20
2016,05,06,05,23,7.20
2016,05,06,05,24,7.10
2016,05,06,05,25,7.10
2016,05,06,05,26,7.10
2016,05,06,05,27,7.10
2016,05,06,05,28,7.00
2016,05,06,05,29,7.00
2016,05,06,05,30,7.00
2016,05,06,05,31,7.00
2016,05,06,05,32,7.00
2016,05,06,05,33,7.00
2016,05,06,05,34,7.00
2016,05,06,05,35,7.00
2016,05,06,05,36,7.00
2016,05,06,05,37,7.00
2016,05,06,05,38,7.00
2016,05,06,05,39,7.00
2016,05,06,05,40,7.00
2016,05,06,05,41,7.00
2016,05,06,05,42,7.00
2016,05,06,05,43,7.00
2016,05,06,05,44,7.00
2016,05,06,05,45,7.00
2016,05,06,05,46,7.00
2016,05,06,05,47,7.00
2016,05,06,05,48,7.10
2016,05,06,05,49,7.10
2016,05,06,05,50,7.10
2016,05,06,05,51,7.10
2016,05,06,05,52,7.10
2016,05,06,05,53,7.10
2016,05,06,05,54,7.10
2016,05,06,05,55,7.10
2016,05,06,05,56,7.10
2016,05,06,05,57,7.10
2016,05,06,05,58,7.10
2016,05,06,05,59,7.10
2016,05,06,06,00,7.00
2016,05,06,06,01,7.00
2016,05,06,06,02,7.00
2016,05,06,06,03,7.00
2016,05,06,06,04,6.90
2016,05,06,06,05,6.90
2016,05,06,06,06,6.90
2016,05,06,06,07,6.90
2016,05,06,06,08,6.90
2016,05,06,06,09,6.90
2016,05,06,06,10,6.90
2016,05,06,06,11,6.90
2016,05,06,06,12,6.90
2016,05,06,06,13,6.90
2016,05,06,06,14,6.90
2016,05,06,06,15,6.90
2016,05,06,06,16,7.00
2016,05,06,06,17,7.00
2016,05,06,06,18,7.00
2016,05,06,06,19,7.10
2016,05,06,06,20,7.10
2016,05,06,06,21,7.20
2016,05,06,06,22,7.20
2016,05,06,06,23,7.30
2016,05,06,06,24,7.30
2016,05,06,06,25,7.40
2016,05,06,06,26,7.40
2016,05,06,06,27,7.50
2016,05,06,06,28,7.50
2016,05,06,06,29,7.60
2016,05,06,06,30,7.60
2016,05,06,06,31,7.70
2016,05,06,06,32,7.80
2016,05,06,06,33,7.80
2016,05,06,06,34,7.80
2016,05,06,06,35,7.90
2016,05,06,06,36,8.00
2016,05,06,06,37,8.00
2016,05,06,06,38,8.10
2016,05,06,06,39,8.20
2016,05,06,06,40,8.20
2016,05,06,06,41,8.20
2016,05,06,06,42,8.30
2016,05,06,06,43,8.30
2016,05,06,06,44,8.40
2016,05,06,06,45,8.50
2016,05,06,06,46,8.50
2016,05,06,06,47,8.60
2016,05,06,06,48,8.60
2016,05,06,06,49,8.70
2016,05,06,06,50,8.80
2016,05,06,06,51,8.80
2016,05,06,06,52,8.90
2016,05,06,06,53,9.00
2016,05,06,06,54,9.10
2016,05,06,06,55,9.20
2016,05,06,06,56,9.20
2016,05,06,06,57,9.40
2016,05,06,06,58,9.50
2016,05,06,06,59,9.50
2016,05,06,07,00,9.60
2016,05,06,07,01,9.70
2016,05,06,07,02,9.70
2016,05,06,07,03,9.80
2016,05,06,07,04,9.90
2016,05,06,07,05,10.00
2016,05,06,07,06,10.10
2016,05,06,07,07,10.20
2016,05,06,07,08,10.30
2016,05,06,07,09,10.30
2016,05,06,07,10,10.40
2016,05,06,07,11,10.40
2016,05,06,07,12,10.50
2016,05,06,07,13,10.60
2016,05,06,07,14,10.60
2016,05,06,07,15,10.60
2016,05,06,07,16,10.70
2016,05,06,07,17,10.70
2016,05,06,07,18,10.80
2016,05,06,07,19,10.90
2016,05,06,07,20,10.90
2016,05,06,07,21,11.00
2016,05,06,07,22,11.20
2016,05,06,07,23,11.30
2016,05,06,07,24,11.40
2016,05,06,07,25,11.50
2016,05,06,07,26,11.60
2016,05,06,07,27,11.70
2016,05,06,07,28,11.70
2016,05,06,07,29,11.80
2016,05,06,07,30,11.80
2016,05,06,07,31,11.90
2016,05,06,07,32,12.00
2016,05,06,07,33,12.10
2016,05,06,07,34,12.20
2016,05,06,07,35,12.30
2016,05,06,07,36,12.50
2016,05,06,07,37,12.60
2016,05,06,07,38,12.80
2016,05,06,07,39,12.90
2016,05,06,07,40,13.00
2016,05,06,07,41,13.10
2016,05,06,07,42,13.20
2016,05,06,07,43,13.30
2016,05,06,07,44,13.30
2016,05,06,07,45,13.40
2016,05,06,07,46,13.50
2016,05,06,07,47,13.60
2016,05,06,07,48,13.70
2016,05,06,07,49,13.80
2016,05,06,07,50,13.90
2016,05,06,07,51,14.00
2016,05,06,07,52,14.10
2016,05,06,07,53,14.20
2016,05,06,07,54,14.20
2016,05,06,07,55,14.10
2016,05,06,07,56,14.00
2016,05,06,07,57,13.90
2016,05,06,07,58,13.90
2016,05,06,07,59,13.80
2016,05,06,08,00,13.80
2016,05,06,08,01,13.80
2016,05,06,08,02,13.80
2016,05,06,08,03,13.80
2016,05,06,08,04,13.80
2016,05,06,08,05,13.80
2016,05,06,08,06,13.80
2016,05,06,08,07,13.90
2016,05,06,08,08,13.90
2016,05,06,08,09,13.90
2016,05,06,08,10,14.00
2016,05,06,08,11,14.00
2016,05,06,08,12,14.10
2016,05,06,08,13,14.20
2016,05,06,08,14,14.20
2016,05,06,08,15,14.20
2016,05,06,08,16,14.30
2016,05,06,08,17,14.30
2016,05,06,08,18,14.40
2016,05,06,08,19,14.40
2016,05,06,08,20,14.50
2016,05,06,08,21,14.50
2016,05,06,08,22,14.60
2016,05,06,08,23,14.70
2016,05,06,08,24,14.80
2016,05,06,08,25,14.80
2016,05,06,08,26,14.90
2016,05,06,08,27,15.00
2016,05,06,08,28,15.00
2016,05,06,08,29,15.10
2016,05,06,08,30,15.20
2016,05,06,08,31,15.20
2016,05,06,08,32,15.30
2016,05,06,08,33,15.30
2016,05,06,08,34,15.40
2016,05,06,08,35,15.50
2016,05,06,08,36,15.60
2016,05,06,08,37,15.70
2016,05,06,08,38,15.80
2016,05,06,08,39,15.80
2016,05,06,08,40,16.00
2016,05,06,08,41,16.10
2016,05,06,08,42,16.10
2016,05,06,08,43,16.20
2016,05,06,08,44,16.30
2016,05,06,08,45,16.40
2016,05,06,08,46,16.50
2016,05,06,08,47,16.60
2016,05,06,08,48,16.70
2016,05,06,08,49,16.80
2016,05,06,08,50,16.90
2016,05,06,08,51,17.00
2016,05,06,08,52,17.00
2016,05,06,08,53,17.10
2016,05,06,08,54,17.20
2016,05,06,08,55,17.30
2016,05,06,08,56,17.30
2016,05,06,08,57,17.40
2016,05,06,08,58,17.40
2016,05,06,08,59,17.50
2016,05,06,09,00,17.70
2016,05,06,09,01,17.80
2016,05,06,09,02,17.80
2016,05,06,09,03,17.80
2016,05,06,09,04,17.80
2016,05,06,09,05,17.80
2016,05,06,09,06,17.70
2016,05,06,09,07,17.60
2016,05,06,09,08,17.50
2016,05,06,09,09,17.40
2016,05,06,09,10,17.30
2016,05,06,09,11,17.30
2016,05,06,09,12,17.20
2016,05,06,09,13,17.20
2016,05,06,09,14,17.10
2016,05,06,09,15,17.10
2016,05,06,09,16,17.20
2016,05,06,09,17,17.30
2016,05,06,09,18,17.30
2016,05,06,09,19,17.50
2016,05,06,09,20,17.60
2016,05,06,09,21,17.70
2016,05,06,09,22,17.80
2016,05,06,09,23,17.90
2016,05,06,09,24,18.10
2016,05,06,09,25,18.30
2016,05,06,09,26,18.50
2016,05,06,09,27,18.70
2016,05,06,09,28,18.80
2016,05,06,09,29,18.90
2016,05,06,09,30,18.90
2016,05,06,09,31,19.10
2016,05,06,09,32,19.10
2016,05,06,09,33,19.20
2016,05,06,09,34,19.30
2016,05,06,09,35,19.30
2016,05,06,09,36,19.40
2016,05,06,09,37,19.50
2016,05,06,09,38,19.70
2016,05,06,09,39,19.70
2016,05,06,09,40,19.80
2016,05,06,09,41,19.90
2016,05,06,09,42,19.90
2016,05,06,09,43,19.90
2016,05,06,09,44,20.00
2016,05,06,09,45,20.20
2016,05,06,09,46,20.10
2016,05,06,09,47,20.00
2016,05,06,09,48,19.90
2016,05,06,09,49,19.80
2016,05,06,09,50,19.70
2016,05,06,09,51,19.60
2016,05,06,09,52,19.60
2016,05,06,09,53,19.60
2016,05,06,09,54,19.70
2016,05,06,09,55,19.80
2016,05,06,09,56,19.90
2016,05,06,09,57,19.90
2016,05,06,09,58,19.90
2016,05,06,09,59,20.00
2016,05,06,10,00,20.10
2016,05,06,10,01,20.20
2016,05,06,10,02,20.30
2016,05,06,10,03,20.30
2016,05,06,10,04,20.30
2016,05,06,10,05,20.40
2016,05,06,10,06,20.40
2016,05,06,10,07,20.50
2016,05,06,10,08,20.60
2016,05,06,10,09,20.60
2016,05,06,10,10,20.60
2016,05,06,10,11,20.70
2016,05,06,10,12,20.70
2016,05,06,10,13,20.80
2016,05,06,10,14,20.60
2016,05,06,10,15,20.40
2016,05,06,10,16,20.20
2016,05,06,10,17,20.00
2016,05,06,10,18,19.80
2016,05,06,10,19,19.60
2016,05,06,10,20,19.50
2016,05,06,10,21,19.40
2016,05,06,10,22,19.30
2016,05,06,10,23,19.30
2016,05,06,10,24,19.30
2016,05,06,10,25,19.30
2016,05,06,10,26,19.30
2016,05,06,10,27,19.40
2016,05,06,10,28,19.40
2016,05,06,10,29,19.40
2016,05,06,10,30,19.40
2016,05,06,10,31,19.40
2016,05,06,10,32,19.40
2016,05,06,10,33,19.30
2016,05,06,10,34,19.20
2016,05,06,10,35,19.10
2016,05,06,10,36,19.10
2016,05,06,10,37,19.10
2016,05,06,10,38,19.10
2016,05,06,10,39,19.10
2016,05,06,10,40,19.20
2016,05,06,10,41,19.20
2016,05,06,10,42,19.30
2016,05,06,10,43,19.30
2016,05,06,10,44,19.30
2016,05,06,10,45,19.30
2016,05,06,10,46,19.20
2016,05,06,10,47,19.20
2016,05,06,10,48,19.20
2016,05,06,10,49,19.20
2016,05,06,10,50,19.20
2016,05,06,10,51,19.20
2016,05,06,10,52,19.10
2016,05,06,10,53,19.10
2016,05,06,10,54,19.10
2016,05,06,10,55,19.00
2016,05,06,10,56,18.90
2016,05,06,10,57,18.90
2016,05,06,10,58,18.80
2016,05,06,10,59,18.80
2016,05,06,11,00,18.90
2016,05,06,11,01,18.90
2016,05,06,11,02,19.00
2016,05,06,11,03,19.10
2016,05,06,11,04,19.20
2016,05,06,11,05,19.40
2016,05,06,11,06,19.40
2016,05,06,11,07,19.50
2016,05,06,11,08,19.50
2016,05,06,11,09,19.40
2016,05,06,11,10,19.40
2016,05,06,11,11,19.30
2016,05,06,11,12,19.20
2016,05,06,11,13,19.20
2016,05,06,11,14,19.20
2016,05,06,11,15,19.20
2016,05,06,11,16,19.20
2016,05,06,11,17,19.20
2016,05,06,11,18,19.30
2016,05,06,11,19,19.40
2016,05,06,11,20,19.40
2016,05,06,11,21,19.50
2016,05,06,11,22,19.60
2016,05,06,11,23,19.60
2016,05,06,11,24,19.60
2016,05,06,11,25,19.70
2016,05,06,11,26,19.70
2016,05,06,11,27,19.70
2016,05,06,11,28,19.70
2016,05,06,11,29,19.70
2016,05,06,11,30,19.60
2016,05,06,11,31,19.60
2016,05,06,11,32,19.60
2016,05,06,11,33,19.60
2016,05,06,11,34,19.60
2016,05,06,11,35,19.60
2016,05,06,11,36,19.40
2016,05,06,11,37,19.30
2016,05,06,11,38,19.30
2016,05,06,11,39,19.40
2016,05,06,11,40,19.50
2016,05,06,11,41,19.50
2016,05,06,11,42,19.50
2016,05,06,11,43,19.60
2016,05,06,11,44,19.60
2016,05,06,11,45,19.60
2016,05,06,11,46,19.70
2016,05,06,11,47,19.70
2016,05,06,11,48,19.80
2016,05,06,11,49,19.70
2016,05,06,11,50,19.70
2016,05,06,11,51,19.70
2016,05,06,11,52,19.70
2016,05,06,11,53,19.70
2016,05,06,11,54,19.70
2016,05,06,11,55,19.70
2016,05,06,11,56,19.80
2016,05,06,11,57,19.80
2016,05,06,11,58,19.90
2016,05,06,11,59,19.90
2016,05,06,12,00,19.90
2016,05,06,12,01,20.00
2016,05,06,12,02,20.10
2016,05,06,12,03,20.20
2016,05,06,12,04,20.20
2016,05,06,12,05,20.20
2016,05,06,12,06,20.30
2016,05,06,12,07,20.20
2016,05,06,12,08,20.20
2016,05,06,12,09,20.30
2016,05,06,12,10,20.30
2016,05,06,12,11,20.30
2016,05,06,12,12,20.20
2016,05,06,12,13,20.20
2016,05,06,12,14,20.20
2016,05,06,12,15,20.30
2016,05,06,12,16,20.30
2016,05,06,12,17,20.40
2016,05,06,12,18,20.40
2016,05,06,12,19,20.30
2016,05,06,12,20,20.30
2016,05,06,12,21,20.40
2016,05,06,12,22,20.50
2016,05,06,12,23,20.60
2016,05,06,12,24,20.60
2016,05,06,12,25,20.60
2016,05,06,12,26,20.60
2016,05,06,12,27,20.60
2016,05,06,12,28,20.60
2016,05,06,12,29,20.60
2016,05,06,12,30,20.60
2016,05,06,12,31,20.60
2016,05,06,12,32,20.50
2016,05,06,12,33,20.50
2016,05,06,12,34,20.40
2016,05,06,12,35,20.20
2016,05,06,12,36,20.20
2016,05,06,12,37,20.20
2016,05,06,12,38,20.20
2016,05,06,12,39,20.40
2016,05,06,12,40,20.50
2016,05,06,12,41,20.60
2016,05,06,12,42,20.70
2016,05,06,12,43,20.70
2016,05,06,12,44,20.70
2016,05,06,12,45,20.80
2016,05,06,12,46,20.70
2016,05,06,12,47,20.70
2016,05,06,12,48,20.80
2016,05,06,12,49,20.80
2016,05,06,12,50,20.80
2016,05,06,12,51,20.90
2016,05,06,12,52,21.00
2016,05,06,12,53,21.20
2016,05,06,12,54,21.20
2016,05,06,12,55,21.30
2016,05,06,12,56,21.30
2016,05,06,12,57,21.30
2016,05,06,12,58,21.10
2016,05,06,12,59,21.00
2016,05,06,13,00,20.80
2016,05,06,13,01,20.70
2016,05,06,13,02,20.70
2016,05,06,13,03,20.60
2016,05,06,13,04,20.60
2016,05,06,13,05,20.70
2016,05,06,13,06,20.70
2016,05,06,13,07,20.70
2016,05,06,13,08,20.70
2016,05,06,13,09,20.60
2016,05,06,13,10,20.70
2016,05,06,13,11,20.50
2016,05,06,13,12,20.40
2016,05,06,13,13,20.40
2016,05,06,13,14,20.40
2016,05,06,13,15,20.40
2016,05,06,13,16,20.50
2016,05,06,13,17,20.50
2016,05,06,13,18,20.50
2016,05,06,13,19,20.60
2016,05,06,13,20,20.70
2016,05,06,13,21,20.70
2016,05,06,13,22,20.70
2016,05,06,13,23,20.70
2016,05,06,13,24,20.70
2016,05,06,13,25,20.70
2016,05,06,13,26,20.80
2016,05,06,13,27,20.80
2016,05,06,13,28,21.00
2016,05,06,13,29,21.00
2016,05,06,13,30,21.00
2016,05,06,13,31,20.90
2016,05,06,13,32,20.90
2016,05,06,13,33,20.90
2016,05,06,13,34,21.00
2016,05,06,13,35,21.10
2016,05,06,13,36,21.10
2016,05,06,13,37,21.10
2016,05,06,13,38,21.10
2016,05,06,13,39,21.20
2016,05,06,13,40,21.30
2016,05,06,13,41,21.30
2016,05,06,13,42,21.30
2016,05,06,13,43,21.30
2016,05,06,13,44,21.30
2016,05,06,13,45,21.30
2016,05,06,13,46,21.30
2016,05,06,13,47,21.30
2016,05,06,13,48,21.30
2016,05,06,13,49,21.20
2016,05,06,13,50,21.20
2016,05,06,13,51,21.10
2016,05,06,13,52,21.20
2016,05,06,13,53,21.20
2016,05,06,13,54,21.10
2016,05,06,13,55,21.10
2016,05,06,13,56,21.10
2016,05,06,13,57,21.10
2016,05,06,13,58,21.00
2016,05,06,13,59,21.00
2016,05,06,14,00,21.00
2016,05,06,14,01,20.90
2016,05,06,14,02,20.80
2016,05,06,14,03,20.80
2016,05,06,14,04,20.80
2016,05,06,14,05,20.80
2016,05,06,14,06,20.80
2016,05,06,14,07,20.80
2016,05,06,14,08,20.90
2016,05,06,14,09,21.00
2016,05,06,14,10,21.10
2016,05,06,14,11,21.20
2016,05,06,14,12,21.30
2016,05,06,14,13,21.30
2016,05,06,14,14,21.30
2016,05,06,14,15,21.30
2016,05,06,14,16,21.40
2016,05,06,14,17,21.50
2016,05,06,14,18,21.60
2016,05,06,14,19,21.80
2016,05,06,14,20,21.90
2016,05,06,14,21,22.00
2016,05,06,14,22,22.00
2016,05,06,14,23,22.10
2016,05,06,14,24,22.20
2016,05,06,14,25,22.10
2016,05,06,14,26,22.10
2016,05,06,14,27,22.00
2016,05,06,14,28,21.90
2016,05,06,14,29,21.80
2016,05,06,14,30,21.70
2016,05,06,14,31,21.80
2016,05,06,14,32,21.80
2016,05,06,14,33,21.90
2016,05,06,14,34,21.90
2016,05,06,14,35,21.90
2016,05,06,14,36,21.80
2016,05,06,14,37,21.70
2016,05,06,14,38,21.60
2016,05,06,14,39,21.50
2016,05,06,14,40,21.40
2016,05,06,14,41,21.40
2016,05,06,14,42,21.50
2016,05,06,14,43,21.60
2016,05,06,14,44,21.60
2016,05,06,14,45,21.70
2016,05,06,14,46,21.70
2016,05,06,14,47,21.80
2016,05,06,14,48,21.90
2016,05,06,14,49,21.90
2016,05,06,14,50,21.80
2016,05,06,14,51,21.80
2016,05,06,14,52,21.80
2016,05,06,14,53,21.80
2016,05,06,14,54,21.90
2016,05,06,14,55,21.90
2016,05,06,14,56,22.00
2016,05,06,14,57,22.00
2016,05,06,14,58,21.90
2016,05,06,14,59,21.90
2016,05,06,15,00,21.90
2016,05,06,15,01,21.90
2016,05,06,15,02,21.70
2016,05,06,15,03,21.70
2016,05,06,15,04,21.70
2016,05,06,15,05,21.80
2016,05,06,15,06,21.90
2016,05,06,15,07,22.00
2016,05,06,15,08,22.10
2016,05,06,15,09,22.20
2016,05,06,15,10,22.30
2016,05,06,15,11,22.40
2016,05,06,15,12,22.40
2016,05,06,15,13,22.50
2016,05,06,15,14,22.50
2016,05,06,15,15,22.60
2016,05,06,15,16,22.60
2016,05,06,15,17,22.50
2016,05,06,15,18,22.40
2016,05,06,15,19,22.40
2016,05,06,15,20,22.40
2016,05,06,15,21,22.40
2016,05,06,15,22,22.40
2016,05,06,15,23,22.50
2016,05,06,15,24,22.50
2016,05,06,15,25,22.50
2016,05,06,15,26,22.50
2016,05,06,15,27,22.30
2016,05,06,15,28,22.20
2016,05,06,15,29,22.10
2016,05,06,15,30,22.00
2016,05,06,15,31,21.80
2016,05,06,15,32,21.70
2016,05,06,15,33,21.70
2016,05,06,15,34,21.60
2016,05,06,15,35,21.50
2016,05,06,15,36,21.40
2016,05,06,15,37,21.40
2016,05,06,15,38,21.50
2016,05,06,15,39,21.60
2016,05,06,15,40,21.60
2016,05,06,15,41,21.60
2016,05,06,15,42,21.70
2016,05,06,15,43,21.80
2016,05,06,15,44,21.70
2016,05,06,15,45,21.70
2016,05,06,15,46,21.60
2016,05,06,15,47,21.60
2016,05,06,15,48,21.60
2016,05,06,15,49,21.60
2016,05,06,15,50,21.60
2016,05,06,15,51,21.60
2016,05,06,15,52,21.60
2016,05,06,15,53,21.70
2016,05,06,15,54,21.80
2016,05,06,15,55,21.90
2016,05,06,15,56,22.00
2016,05,06,15,57,22.00
2016,05,06,15,58,22.10
2016,05,06,15,59,22.10
2016,05,06,16,00,22.10
2016,05,06,16,01,22.20
2016,05,06,16,02,22.20
2016,05,06,16,03,22.10
2016,05,06,16,04,22.10
2016,05,06,16,05,22.00
2016,05,06,16,06,22.00
2016,05,06,16,07,22.10
2016,05,06,16,08,22.10
2016,05,06,16,09,22.00
2016,05,06,16,10,22.00
2016,05,06,16,11,21.90
2016,05,06,16,12,21.90
2016,05,06,16,13,21.90
2016,05,06,16,14,21.90
2016,05,06,16,15,21.90
2016,05,06,16,16,21.90
2016,05,06,16,17,21.80
2016,05,06,16,18,21.90
2016,05,06,16,19,21.90
2016,05,06,16,20,22.00
2016,05,06,16,21,22.00
2016,05,06,16,22,22.00
2016,05,06,16,23,22.10
2016,05,06,16,24,22.10
2016,05,06,16,25,22.00
2016,05,06,16,26,22.00
2016,05,06,16,27,22.00
2016,05,06,16,28,21.90
2016,05,06,16,29,21.90
2016,05,06,16,30,21.90
2016,05,06,16,31,21.90
2016,05,06,16,32,21.90
2016,05,06,16,33,21.90
2016,05,06,16,34,21.90
2016,05,06,16,35,21.90
2016,05,06,16,36,22.00
2016,05,06,16,37,22.00
2016,05,06,16,38,22.00
2016,05,06,16,39,22.00
2016,05,06,16,40,22.00
2016,05,06,16,41,22.10
2016,05,06,16,42,22.20
2016,05,06,16,43,22.20
2016,05,06,16,44,22.30
2016,05,06,16,45,22.40
2016,05,06,16,46,22.50
2016,05,06,16,47,22.70
2016,05,06,16,48,22.70
2016,05,06,16,49,22.70
2016,05,06,16,50,22.60
2016,05,06,16,51,22.60
2016,05,06,16,52,22.60
2016,05,06,16,53,22.60
2016,05,06,16,54,22.60
2016,05,06,16,55,22.60
2016,05,06,16,56,22.60
2016,05,06,16,57,22.50
2016,05,06,16,58,22.50
2016,05,06,16,59,22.50
2016,05,06,17,00,22.60
2016,05,06,17,01,22.60
2016,05,06,17,02,22.60
2016,05,06,17,03,22.50
2016,05,06,17,04,22.50
2016,05,06,17,05,22.50
2016,05,06,17,06,22.60
2016,05,06,17,07,22.60
2016,05,06,17,08,22.60
2016,05,06,17,09,22.50
2016,05,06,17,10,22.50
2016,05,06,17,11,22.50
2016,05,06,17,12,22.50
2016,05,06,17,13,22.50
2016,05,06,17,14,22.50
2016,05,06,17,15,22.50
2016,05,06,17,16,22.60
2016,05,06,17,17,22.70
2016,05,06,17,18,22.70
2016,05,06,17,19,22.70
2016,05,06,17,20,22.70
2016,05,06,17,21,22.70
2016,05,06,17,22,22.80
2016,05,06,17,23,22.80
2016,05,06,17,24,22.80
2016,05,06,17,25,22.70
2016,05,06,17,26,22.80
2016,05,06,17,27,22.70
2016,05,06,17,28,22.70
2016,05,06,17,29,22.80
2016,05,06,17,30,22.90
2016,05,06,17,31,22.90
2016,05,06,17,32,22.90
2016,05,06,17,33,23.00
2016,05,06,17,34,23.10
2016,05,06,17,35,23.10
2016,05,06,17,36,23.20